TimePDT,TemperatureF,Dew PointF,Humidity,Sea Level PressureIn,VisibilityMPH,Wind Direction,Wind SpeedMPH,Gust SpeedMPH,PrecipitationIn,Events,Conditions,WindDirDegrees,DateUTC
12:52 AM,89.1,66.9,48,29.81,10.0,South,9.2,-,N/A,,Clear,170,2012-09-08 07:52:00
1:52 AM,87.1,68.0,53,29.81,10.0,South,5.8,-,N/A,,Clear,180,2012-09-08 08:52:00
2:52 AM,86.0,69.1,57,29.80,10.0,SSE,6.9,-,N/A,,Clear,160,2012-09-08 09:52:00
3:52 AM,84.9,69.1,59,29.80,10.0,Calm,Calm,-,N/A,,Clear,0,2012-09-08 10:52:00
4:52 AM,84.9,69.1,59,29.81,10.0,Calm,Calm,-,N/A,,Clear,0,2012-09-08 11:52:00
5:52 AM,86.0,69.1,57,29.81,10.0,Calm,Calm,-,N/A,,Clear,0,2012-09-08 12:52:00
6:52 AM,84.9,68.0,57,29.83,10.0,Calm,Calm,-,N/A,,Clear,0,2012-09-08 13:52:00
7:52 AM,86.0,68.0,55,29.85,10.0,NNW,3.5,-,N/A,,Clear,340,2012-09-08 14:52:00
8:52 AM,88.0,68.0,51,29.87,10.0,Calm,Calm,-,N/A,,Clear,0,2012-09-08 15:52:00
9:52 AM,91.9,68.0,45,29.88,10.0,ENE,3.5,-,N/A,,Clear,70,2012-09-08 16:52:00
10:52 AM,95.0,69.1,43,29.86,10.0,Variable,3.5,-,N/A,,Clear,0,2012-09-08 17:52:00
11:52 AM,97.0,69.1,40,29.85,10.0,ESE,5.8,-,N/A,,Clear,110,2012-09-08 18:52:00
12:52 PM,100.0,66.9,34,29.83,10.0,NE,6.9,-,N/A,,Clear,40,2012-09-08 19:52:00
1:52 PM,100.9,66.0,32,29.81,10.0,North,5.8,-,N/A,,Clear,10,2012-09-08 20:52:00
2:52 PM,102.0,66.9,32,29.78,10.0,ENE,3.5,-,N/A,,Clear,60,2012-09-08 21:52:00
3:52 PM,100.9,66.9,33,29.76,10.0,SSE,8.1,-,N/A,,Clear,150,2012-09-08 22:52:00
4:52 PM,99.0,63.0,30,29.75,10.0,SE,8.1,-,N/A,,Clear,130,2012-09-08 23:52:00
5:52 PM,99.0,63.0,30,29.75,10.0,SE,4.6,-,N/A,,Clear,130,2012-09-09 00:52:00
6:52 PM,98.1,62.1,30,29.76,10.0,Calm,Calm,-,N/A,,Clear,0,2012-09-09 01:52:00
7:52 PM,95.0,64.9,37,29.78,10.0,South,5.8,-,N/A,,Clear,180,2012-09-09 02:52:00
8:52 PM,93.9,64.9,38,29.80,10.0,SW,3.5,-,N/A,,Clear,230,2012-09-09 03:52:00
9:52 PM,93.0,64.9,39,29.82,10.0,Calm,Calm,-,N/A,,Clear,0,2012-09-09 04:52:00
10:52 PM,91.9,64.9,41,29.82,10.0,SE,6.9,-,N/A,,Clear,140,2012-09-09 05:52:00
11:52 PM,91.0,66.0,44,29.81,10.0,SE,6.9,-,N/A,,Clear,130,2012-09-09 06:52:00